Regional Weather Roundup
Issued by NWS

Home | Current Version | Previous Version | Graphics & Text | Print | Product List | Glossary On
Versions: 1 2 3 4 5 6 7 8 9 10 11 12 13 14 15 16 17 18 19 20 21 22 23 24 25 26 27 28
000
ASUS45 KSLC 250010
RWRUT

UTAH REGIONAL WEATHER ROUNDUP
NATIONAL WEATHER SERVICE SALT LAKE CITY UT
600 PM MDT MON APR 24 2017

UTZ001>011-023>025-250100-

NORTHERN UTAH

CITY           SKY/WX    TMP DP  RH WIND       PRES   REMARKS
BRIGHAM CITY   CLOUDY    47  40  77 N3        29.72R
HILL AFB       PTSUNNY   48  39  73 S8        29.70F
LOGAN          LGT RAIN  45  40  82 E6        29.71R
OGDEN          CLOUDY    49  40  71 SE8       29.69F
SALT LAKE CITY PTSUNNY   50  40  68 E6        29.71F
TOOELE VALLEY  MOSUNNY   52  41  66 SE3       29.71S
WENDOVER       MOSUNNY   58  27  30 NW15G31   29.70R
HEBER CITY     DRIZZLE   45  37  76 E10       29.70R
WEST JORDAN    PTSUNNY   51  47  85 NE3       29.72F

$$

UTZ011>015-024>027-250100-

CENTRAL/NORTHEAST UTAH

CITY           SKY/WX    TMP DP  RH WIND       PRES   REMARKS
PROVO AIRPORT  PTSUNNY   54  37  54 NW9       29.70F
MOAB/CANYONLAN CLOUDY    70  23  17 SW16      29.53F
DELTA          CLOUDY    52  32  46 N18G24    29.71R
PRICE          LGT RAIN  51  35  54 N15       29.67R
ROOSEVELT      CLOUDY    52  34  50 W22G31    29.65R
VERNAL         PTSUNNY   59  35  40 W17G24    29.58F

$$

UTZ013>016-019>022-027-250100-

SOUTHERN UTAH

CITY           SKY/WX    TMP DP  RH WIND       PRES   REMARKS
BRYCE CANYON   CLOUDY    54  21  27 SW13G23   29.78F
CEDAR CITY     CLOUDY    63  25  23 SW15G25   29.70F
MILFORD        CLOUDY    67  25  20 W20G29    29.65S
ST GEORGE      CLOUDY    76  24  14 W21       29.61F
HANKSVILLE     CLOUDY    73  23  15 W24G36    29.57F
BLANDING       CLOUDY    64  21  19 SW10G17   29.74F

$$

REGIONAL REPORTS     COLORADO/ARIZONA

CITY           SKY/WX    TMP DP  RH WIND       PRES   REMARKS
CRAIG, CO      LGT RAIN  52  36  54 W18G31    29.61R
GRAND JUNCTION CLOUDY    66  24  20 VRB6      29.55F
RIFLE, CO      CLOUDY    63  25  23 SW17G32   29.59F
MONTROSE, CO   CLOUDY    60  28  29 SE9       29.68S
CORTEZ, CO     CLOUDY    62  24  23 SW14G21   29.71F
COLORADO CITY    N/A     70  23  17 W13G18    29.74S
PAGE, AZ       CLOUDY    74  23  15 NW9G17    29.61S
GRAND CANYON   CLOUDY    61  24  24 SW22G29   29.81S
KINGMAN, AZ    PTSUNNY   74  30  19 SW23G33   29.72F
FLAGSTAFF, AZ  PTSUNNY   60  21  22 W26G47    29.82F

$$

REGIONAL REPORTS    NEVADA/IDAHO/WYOMING

CITY           SKY/WX    TMP DP  RH WIND       PRES   REMARKS
LAS VEGAS, NV  PTSUNNY   83  24  11 SW13G21   29.58F
ELY, NY        CLOUDY    50  26  39 NW26G38   29.80R
ELKO, NV       PTSUNNY   49  35  58 W12G21    29.78F
POCATELLO, ID  CLOUDY    47  42  83 SW23      29.66S
BURLEY, ID     PTSUNNY   48  37  65 W14G23    29.67F
FORT BRIDGER,    N/A     41  40  93 W25G35    29.69S
EVANSTON, WY   CLOUDY    38  35  89 SW20G26   29.70R WCI  28
ROCK SPRINGS,  LGT RAIN  39  36  89 W17       29.65R WCI  30
KEMMERER, WY     N/A     36  32  87 W25G32    29.66S WCI  23

$$




USA.gov is the U.S. government's official web portal to all federal, state and local government web resources and services.